Theta_e
310 310 309 309 309 309 308 308 308 308 307 307 308 307 307 308 308 308 308 309 309 309 309 310 310 310 310 310 310 310 310 310 310 310 310 310 310 309 309 308 307 307 307 307 307 307 307 308 309 309 309 308 308 307 307 307 306 305 304 303 302 301 301 300 300 301 301 301 300 299 299 299 299 298 297 295 292 291 288 287 287 287 287 286 285
309 309 309 309 309 308 308 307 307 307 307 307 306 306 306 306 307 307 307 307 308 308 308 308 308 308 309 309 309 309 310 310 310 309 309 309 309 309 309 308 307 306 307 307 307 307 307 308 308 309 309 308 308 308 307 307 306 305 304 303 302 301 301 300 299 299 300 300 298 297 297 297 297 296 295 293 292 289 287 286 285 285 285 285 284
308 308 308 308 308 307 307 307 307 307 307 307 307 306 306 306 306 306 307 307 307 307 307 307 307 307 307 308 308 308 308 309 309 309 309 309 309 309 309 308 307 307 307 307 308 307 306 306 307 307 307 307 307 307 307 306 305 304 304 303 302 301 301 300 299 299 299 299 298 296 296 295 295 294 293 291 289 288 286 285 284 284 284 284 284
308 308 308 307 308 308 308 308 308 308 307 307 307 307 307 307 307 306 306 306 306 306 306 306 306 306 306 307 307 307 307 307 307 308 308 308 308 308 308 307 307 307 306 307 308 307 306 305 305 306 306 306 306 306 305 305 304 304 303 302 302 301 301 300 299 298 298 299 297 295 295 294 293 292 290 288 286 286 285 284 284 283 283 283 283
308 308 308 308 308 308 308 308 308 308 308 308 307 307 307 307 306 306 306 306 306 305 305 305 305 305 305 306 306 306 306 306 306 306 307 307 307 307 307 307 306 306 306 306 307 307 307 305 305 304 304 304 305 305 304 304 304 303 302 302 301 301 300 299 298 298 297 297 297 294 292 291 290 288 288 286 285 284 284 283 283 283 283 283 283
307 307 307 308 307 307 307 307 307 307 307 307 307 307 307 306 306 306 305 305 306 305 305 305 304 304 305 305 305 305 305 305 305 305 306 306 306 306 306 306 305 305 305 305 305 306 306 306 305 304 303 304 304 304 304 304 303 303 302 301 301 300 299 298 297 297 296 296 296 293 290 288 288 286 286 286 285 284 283 283 283 283 283 283 283
307 307 307 307 307 307 307 306 307 307 307 307 307 307 307 306 306 306 305 305 305 304 304 304 304 304 304 304 304 304 304 304 304 305 305 305 305 305 305 304 304 304 304 304 304 305 305 305 305 305 304 303 303 303 303 303 302 302 301 301 301 299 298 297 297 296 295 294 294 292 289 287 286 285 285 284 285 284 283 282 282 282 283 283 284
306 306 306 306 306 306 306 306 306 306 306 306 306 307 307 307 306 306 305 305 304 304 304 304 304 304 303 303 303 303 303 303 304 304 304 304 304 303 303 303 302 302 302 303 303 303 304 304 305 305 304 304 303 303 303 303 302 301 301 301 300 299 298 297 296 295 294 293 293 291 288 286 285 284 284 283 283 283 283 283 282 282 283 284 285
304 304 304 303 304 304 304 304 304 305 305 305 306 306 306 306 306 305 305 304 304 303 303 302 303 302 302 302 302 302 303 303 303 303 303 303 303 303 302 302 301 301 301 301 302 302 302 303 304 304 304 304 303 303 302 302 302 301 300 300 299 298 297 296 295 294 293 292 292 289 287 285 284 283 283 282 283 282 283 283 283 283 284 283 284
300 300 300 299 300 300 300 301 301 301 302 302 303 303 304 304 305 304 304 304 303 303 303 302 302 301 301 301 301 301 302 302 302 302 302 302 302 302 301 301 300 300 300 300 300 301 301 302 303 304 304 304 303 303 302 302 301 301 300 300 299 298 297 295 294 293 292 292 291 288 286 285 283 283 283 283 283 283 283 283 283 283 283 283 283
297 296 296 296 296 296 296 296 296 297 297 298 299 300 300 301 302 302 303 303 303 303 302 302 302 301 300 300 300 301 301 301 301 301 301 301 301 300 300 300 299 299 299 299 299 299 300 300 301 302 303 303 303 303 302 302 301 301 301 300 299 298 297 296 294 293 292 292 291 288 287 286 284 283 284 283 283 284 284 284 284 283 283 283 284
294 294 293 293 293 293 293 293 294 294 294 295 296 296 297 298 298 299 299 300 300 300 301 301 301 300 300 299 299 300 300 300 300 299 300 300 300 299 299 299 299 298 298 298 298 299 299 299 300 301 301 302 302 302 302 302 301 301 300 300 298 297 297 296 295 294 292 291 290 288 287 286 284 283 284 284 284 285 285 285 284 283 284 285 285
293 293 293 293 293 293 293 293 293 293 293 293 294 294 295 295 296 297 297 298 298 298 299 299 299 299 299 299 299 299 299 299 299 298 299 299 299 299 298 298 298 298 298 298 298 298 298 298 299 299 300 300 301 301 301 301 300 300 299 298 297 296 296 295 295 295 293 292 290 289 288 287 285 283 284 285 285 284 284 284 285 285 285 286 285
293 293 293 293 293 293 293 293 293 293 293 293 293 293 294 294 294 295 296 296 297 297 298 298 298 298 298 298 299 299 299 299 298 298 298 298 298 298 298 297 297 297 297 297 297 297 297 297 297 298 298 298 299 299 299 299 299 298 298 297 296 295 295 294 294 293 293 292 291 290 289 287 286 286 286 286 286 285 285 285 285 285 286 286 286
292 292 292 291 291 291 291 292 292 292 292 293 293 293 293 293 293 294 294 295 295 296 296 297 297 298 297 297 298 299 299 298 298 297 297 297 297 297 297 297 296 296 296 296 296 297 296 296 297 297 297 297 297 298 298 297 297 296 295 295 294 294 294 293 293 292 292 292 291 291 290 289 288 288 287 287 286 286 286 286 286 286 285 285 285
290 290 290 290 290 290 290 290 290 290 291 291 291 292 292 292 293 293 293 293 294 294 295 296 296 296 297 296 296 297 298 297 297 297 296 296 296 296 296 296 295 295 295 295 296 296 296 296 296 296 296 296 296 296 296 296 295 294 293 293 292 292 292 292 292 292 291 291 291 291 291 290 288 288 288 287 286 286 287 286 286 285 285 284 282
289 289 289 289 289 289 289 289 289 289 290 290 290 290 291 291 291 292 292 293 293 293 294 294 295 295 296 296 295 296 298 297 296 295 295 294 295 295 294 294 294 294 294 295 295 295 295 295 295 295 295 295 295 295 295 294 293 292 292 291 290 290 290 290 290 290 290 290 290 290 290 289 288 288 289 288 286 287 287 285 284 284 284 283 281
288 289 289 289 289 290 289 289 289 290 290 290 290 290 290 290 290 291 291 292 292 292 293 293 293 294 295 295 295 295 297 298 296 294 294 294 293 294 294 293 293 293 293 293 294 294 294 294 294 294 294 295 295 295 294 293 291 291 290 290 289 288 288 288 288 288 288 289 289 289 289 289 288 288 289 288 287 287 288 287 286 285 285 284 282
287 288 288 289 289 289 289 289 289 289 289 289 289 289 289 290 290 290 290 291 291 291 292 292 293 293 293 294 295 294 296 297 296 294 293 293 293 293 293 292 291 292 292 292 292 293 292 293 293 293 294 294 294 294 293 292 291 290 290 289 288 287 287 287 287 287 288 288 288 288 288 288 288 288 288 288 288 288 289 290 289 288 286 284 282
287 287 287 288 289 289 289 289 289 289 289 289 289 289 289 289 289 289 289 290 290 291 291 291 292 292 292 292 293 293 294 296 296 295 293 293 292 292 292 291 291 291 291 291 291 292 292 291 292 293 293 293 293 293 292 291 290 290 289 288 288 287 287 287 287 287 287 287 287 287 288 287 288 288 288 287 287 288 289 290 290 289 287 284 282
286 286 287 288 288 289 289 289 289 289 289 289 289 289 289 289 289 289 289 289 289 290 290 290 290 291 291 291 292 292 293 293 295 294 293 292 292 292 291 291 291 291 291 291 291 291 291 291 291 292 292 292 292 292 291 290 290 289 289 288 288 288 287 286 287 287 287 287 287 287 287 287 287 287 286 286 286 287 288 288 289 288 287 284 282
284 284 286 287 288 288 289 289 289 289 289 289 288 289 289 289 289 288 288 288 288 288 289 289 289 290 290 291 291 292 292 292 293 293 293 292 291 291 291 291 291 290 290 290 290 290 290 290 290 291 292 291 291 291 290 289 289 289 289 288 288 288 287 287 287 287 287 287 287 286 286 286 286 285 285 285 285 286 286 286 286 285 285 284 283
282 282 284 285 286 287 287 288 288 288 289 288 287 288 289 289 288 288 287 287 287 288 288 288 288 289 290 290 291 291 292 292 292 292 292 291 291 291 291 291 291 290 289 289 290 290 290 290 290 290 291 291 290 289 289 289 289 288 288 288 287 287 287 286 286 286 286 286 285 285 285 284 284 284 284 284 284 284 284 284 283 283 283 282 282
280 281 282 284 284 285 286 287 287 287 287 287 286 287 288 287 287 287 287 286 286 286 287 287 287 287 288 289 289 290 291 291 292 292 291 290 290 290 290 290 290 289 289 289 289 289 289 290 290 290 290 290 289 289 288 288 288 288 287 287 287 287 287 286 286 286 286 285 284 284 283 284 284 283 283 283 283 283 283 282 282 282 281 281 280
280 281 282 283 283 284 285 286 286 286 286 285 285 285 286 285 285 286 285 285 284 285 285 286 286 286 287 287 288 289 290 290 291 291 291 290 289 289 290 290 290 289 288 288 289 289 289 289 289 288 288 288 288 288 287 287 287 288 287 287 287 287 286 286 285 285 285 284 284 283 283 283 283 283 283 283 282 282 282 281 280 280 280 279 278
279 280 281 282 282 282 283 284 284 284 284 284 283 283 284 283 283 284 284 284 284 284 284 285 285 285 286 286 287 288 289 289 289 290 289 289 288 289 289 290 289 289 288 288 288 288 288 289 288 287 287 287 287 286 286 286 287 287 287 287 287 286 286 285 285 285 284 284 284 283 282 282 282 282 283 282 281 281 280 279 278 277 277 277 276
278 278 278 279 280 279 280 281 282 282 282 282 282 282 282 282 283 283 283 283 283 283 284 284 284 285 285 286 287 287 288 288 288 289 288 288 288 288 289 289 289 288 287 287 287 287 288 288 288 287 286 286 286 286 286 286 286 287 287 287 286 286 285 285 285 284 284 284 284 282 282 282 281 281 281 281 280 279 279 278 277 276 276 276 274
275 275 275 276 277 277 278 278 279 280 280 280 281 281 281 282 282 282 282 283 283 283 283 284 284 284 285 285 286 286 287 287 288 288 288 287 287 287 287 288 287 287 287 287 287 287 287 287 287 286 285 285 285 285 285 285 286 287 287 287 286 286 285 285 285 285 284 284 283 282 281 281 280 279 279 279 278 278 278 278 277 276 275 275 273
273 273 274 274 274 275 276 277 277 278 278 279 279 280 280 281 281 281 282 282 282 282 283 283 283 284 284 284 285 285 285 286 287 287 287 287 287 286 286 286 287 286 287 287 287 287 286 286 285 285 284 284 285 285 285 286 286 287 287 286 286 285 285 285 284 284 284 283 282 282 281 280 279 278 277 277 277 277 277 277 276 275 274 274 273
272 272 272 272 272 273 274 274 275 276 277 278 278 279 279 279 280 280 281 281 282 282 283 283 283 284 284 284 284 284 285 285 286 286 286 286 286 286 286 286 286 286 286 286 286 286 285 285 284 284 284 284 285 285 285 286 286 287 286 286 285 285 284 284 284 283 283 283 283 282 280 279 278 277 276 276 276 276 276 276 276 274 274 273 273
269 269 270 270 271 271 272 273 274 275 276 277 278 278 278 278 279 279 280 280 281 281 282 283 283 284 284 284 284 285 285 285 285 286 286 286 286 286 286 286 286 285 286 286 286 285 284 284 284 284 284 284 285 285 285 286 286 286 285 285 285 284 284 283 283 283 282 282 282 281 280 279 278 277 276 276 276 275 275 275 275 274 274 273 273
268 268 269 269 270 270 271 272 273 274 275 276 277 277 277 278 278 278 279 280 280 281 281 282 283 283 284 284 285 285 285 285 285 285 286 286 286 286 286 286 285 285 286 286 286 285 284 284 284 284 284 284 285 285 285 286 286 285 284 284 284 284 283 283 283 283 282 282 281 280 279 278 278 277 277 277 275 274 274 274 274 274 274 273 273
267 268 268 269 270 271 272 272 273 274 274 275 275 276 277 278 278 279 279 279 279 280 280 281 282 283 283 284 285 285 285 285 285 286 286 286 286 286 285 285 285 285 286 286 286 285 284 284 284 284 284 284 284 285 285 285 285 284 283 283 282 282 283 283 283 283 282 282 281 279 278 278 278 277 277 276 274 273 273 274 274 274 273 273 272
267 268 268 269 270 271 271 272 272 273 273 274 274 276 277 277 278 278 278 279 279 280 281 281 281 282 282 283 284 285 285 285 285 286 286 286 286 286 285 285 285 285 286 286 286 285 284 284 284 284 284 284 284 285 285 284 284 283 282 282 282 281 281 281 282 282 281 281 279 278 278 278 278 277 276 274 273 273 273 273 273 273 273 272 271
267 267 267 268 268 269 269 269 270 271 271 272 273 274 275 275 276 277 278 279 279 280 280 281 281 281 282 283 283 284 284 285 285 285 286 286 286 286 286 285 285 285 286 286 286 285 284 284 284 284 284 284 284 284 284 283 283 282 282 281 280 280 280 280 280 281 280 279 278 278 278 279 278 277 276 274 273 273 273 273 273 273 272 271 271
264 264 265 265 265 266 266 267 267 268 269 270 270 271 273 274 275 276 277 278 279 280 281 281 281 281 282 283 283 284 284 284 285 285 285 286 286 286 285 285 285 285 285 286 286 285 284 284 284 283 284 284 283 283 283 283 282 282 282 281 280 280 279 279 279 280 279 278 278 278 279 278 278 277 276 275 274 274 274 274 273 272 271 271 270
263 263 263 263 264 264 264 265 265 266 267 268 270 271 272 274 275 276 278 279 280 280 281 281 282 282 282 283 283 284 284 284 285 285 285 285 286 286 285 285 285 285 285 286 286 285 284 284 284 283 283 283 283 283 282 282 282 281 281 281 281 280 280 280 280 280 279 278 278 279 279 278 277 276 275 274 274 274 274 273 272 272 271 271 270
262 262 262 263 263 263 264 264 265 266 267 269 270 271 272 274 275 276 278 279 280 280 281 282 282 282 283 283 284 284 284 284 285 285 285 285 285 285 285 285 285 285 285 286 285 285 284 283 283 283 283 283 282 282 282 281 281 280 279 279 279 279 279 279 279 278 278 278 278 278 278 277 276 276 275 275 274 274 273 272 272 271 270 270 269
262 262 262 262 263 263 264 264 265 266 267 268 269 270 272 273 274 275 277 279 280 280 280 281 282 282 283 283 283 284 284 284 284 284 284 285 285 285 285 285 285 285 285 285 285 284 283 283 283 283 282 282 282 281 281 280 279 279 278 278 278 277 277 277 276 277 278 278 278 277 276 276 275 275 275 274 274 273 272 271 271 271 270 269 269
262 262 262 262 263 263 264 264 265 266 266 267 268 269 270 271 272 273 275 276 278 279 279 280 281 282 282 282 283 283 284 284 284 284 284 284 284 284 284 284 284 285 285 284 284 283 282 282 282 282 282 281 281 280 280 280 279 278 278 279 279 278 277 276 277 278 279 278 277 276 276 275 275 274 274 273 272 272 271 271 270 270 270 269 268
262 262 262 262 263 263 264 264 265 265 266 266 267 268 269 270 271 272 273 274 276 278 279 280 279 279 279 280 281 283 283 284 284 284 284 284 284 284 284 284 284 285 284 283 283 282 282 282 282 281 281 281 280 280 280 279 279 278 279 279 278 277 276 276 278 279 278 277 276 276 275 274 274 273 272 272 271 271 271 270 270 269 268 268 267
262 262 262 262 263 263 263 264 264 265 265 266 266 267 268 269 269 270 271 273 274 276 278 278 277 277 278 279 281 282 283 283 284 284 284 284 284 283 284 284 284 284 283 283 283 282 282 281 281 281 281 280 280 280 280 280 279 279 279 278 278 277 277 277 278 278 277 276 276 275 274 273 272 271 271 271 271 270 270 269 268 267 267 266 266
262 262 263 263 263 263 263 264 264 264 265 265 266 266 267 268 269 269 271 272 273 275 276 276 276 277 278 279 280 282 282 283 283 283 283 283 283 283 283 284 284 283 283 283 283 283 282 281 281 281 281 281 281 281 281 280 280 280 280 279 279 279 279 278 277 277 276 276 275 274 273 272 271 270 270 270 270 269 268 267 266 266 266 265 265
263 263 263 263 263 263 263 264 264 264 265 265 266 266 267 267 268 269 270 272 273 274 275 276 276 277 278 279 280 281 281 282 282 283 283 283 283 283 283 283 282 282 283 283 283 282 282 281 281 281 280 280 280 281 281 281 281 281 281 281 280 280 279 278 277 277 276 275 274 273 272 271 270 270 270 269 268 267 266 266 266 265 265 264 264
263 263 263 263 263 263 264 264 264 264 265 265 266 266 267 267 268 269 270 272 273 273 274 275 276 277 279 279 280 280 280 281 281 281 281 281 281 281 281 281 281 282 282 283 282 282 281 281 281 281 280 279 279 279 280 280 281 281 281 282 281 280 279 278 278 277 276 275 274 272 271 270 270 270 269 268 267 267 266 266 266 265 264 264 263
262 262 263 263 263 263 264 264 264 265 265 266 266 267 267 268 269 270 271 272 273 273 274 275 276 277 278 279 279 279 279 279 279 279 279 279 279 280 280 280 280 281 282 282 281 281 281 281 281 280 280 279 279 279 279 279 279 280 280 281 281 280 279 278 277 276 275 275 274 272 271 270 270 269 268 267 266 266 266 266 265 265 264 264 263
262 262 262 263 263 263 263 264 264 264 265 265 265 266 267 268 269 270 270 271 272 273 274 275 276 277 277 278 278 278 277 277 277 277 277 277 277 278 279 279 279 280 280 280 280 280 280 280 280 279 279 279 279 279 279 279 278 278 279 278 278 278 277 276 276 275 274 274 273 272 271 270 269 268 267 266 266 266 265 265 265 264 264 263 263
261 261 262 262 262 262 262 263 263 263 264 264 264 264 265 266 267 269 270 271 272 273 274 274 275 276 276 276 276 275 275 275 275 275 275 275 275 276 277 277 278 278 278 278 279 279 279 279 279 278 278 278 278 278 278 277 277 277 277 276 276 276 275 275 274 273 273 272 271 271 270 269 268 267 267 266 266 266 265 265 264 263 263 263 262
261 261 261 262 262 262 262 262 262 262 263 263 263 263 264 265 266 267 268 269 270 271 271 272 272 273 273 273 273 273 273 273 273 273 272 272 273 273 274 274 275 276 277 277 278 278 278 278 277 277 277 277 276 276 276 276 275 275 275 274 274 274 274 273 272 272 271 270 270 269 269 268 268 267 267 266 266 265 265 264 264 263 263 262 262
261 261 261 261 261 261 261 261 261 262 262 262 262 262 263 263 264 265 266 267 268 268 268 269 269 270 270 270 271 271 271 271 271 270 270 270 271 271 272 273 274 275 276 276 277 277 277 276 276 276 275 275 275 275 274 274 274 274 273 273 272 272 272 271 270 270 269 269 268 268 268 268 267 267 266 266 265 265 264 264 263 263 263 262 262
262 261 261 261 261 261 261 261 261 261 261 262 262 262 262 262 263 263 264 265 265 265 266 267 267 268 268 268 268 268 269 269 268 268 268 268 269 270 271 272 273 273 274 275 275 276 276 275 275 274 274 274 273 273 273 273 273 272 272 271 270 270 270 269 269 269 268 268 268 268 268 267 267 266 266 265 264 264 264 263 263 263 262 262 261
Wind_Speed
16 15 14 13 13 13 13 12 11 11 11 11 11 12 12 13 13 14 15 15 17 19 20 21 22 23 23 24 24 25 26 26 26 26 27 28 30 31 31 31 32 33 34 34 33 32 33 35 37 38 38 38 38 38 39 40 41 41 40 39 39 37 36 31 22 20 26 28 26 25 25 25 26 26 27 28 30 32 34 36 39 40 42 42 40
18 17 16 16 15 15 14 14 13 13 13 13 13 13 13 13 13 14 15 15 16 18 19 20 21 22 23 24 25 26 27 27 27 27 28 29 30 31 32 32 33 34 34 36 35 33 34 36 37 38 37 37 38 38 39 40 39 40 40 39 39 39 38 36 29 22 24 28 28 27 26 26 27 28 28 28 29 30 31 33 36 37 38 39 38
19 18 18 17 17 16 16 16 16 16 16 16 16 15 15 14 14 14 15 15 16 17 18 19 20 22 23 25 25 27 28 28 28 28 29 30 31 32 33 33 34 35 36 37 37 35 34 35 37 38 37 37 38 39 39 40 39 39 40 40 40 40 39 39 35 27 25 26 26 26 26 27 28 28 27 27 27 27 29 32 33 34 35 36 36
21 20 20 20 20 20 20 20 20 20 20 20 19 19 18 17 16 16 16 16 16 16 16 18 19 21 22 24 25 27 28 28 29 30 30 31 33 33 33 34 35 36 37 37 37 36 35 35 35 36 36 36 37 38 38 38 38 38 39 39 39 40 40 39 38 34 29 25 23 24 26 26 26 26 26 25 25 26 27 29 30 32 33 33 33
21 20 20 20 21 21 21 21 22 22 22 23 22 22 22 21 20 19 18 18 18 17 17 17 18 19 21 23 24 25 27 28 29 30 31 32 33 34 35 35 36 36 37 37 37 37 36 36 35 34 34 36 37 37 37 37 37 38 38 38 38 39 38 37 37 37 33 28 23 21 22 23 23 23 25 26 25 24 24 26 28 30 30 29 29
20 19 20 20 20 21 21 21 21 22 22 22 23 23 23 23 23 22 21 21 21 20 19 19 19 20 20 21 23 24 25 26 28 30 31 32 33 35 36 36 36 36 37 37 37 37 37 37 36 34 34 36 36 36 35 36 36 37 38 38 38 37 36 35 35 34 32 30 26 20 19 22 21 20 23 26 26 25 23 22 24 26 28 27 26
19 19 19 20 20 21 21 21 21 21 21 22 22 22 23 23 23 23 23 23 22 21 21 21 20 21 22 22 23 23 24 25 27 29 30 32 33 35 36 36 37 37 37 37 37 37 38 37 36 35 35 36 37 36 35 35 36 37 37 37 37 35 34 33 32 30 29 28 24 20 20 21 20 20 21 23 24 24 23 22 21 22 25 27 27
19 19 20 20 21 21 22 22 22 22 22 22 22 22 23 23 23 23 23 23 23 22 22 22 22 22 22 23 23 23 24 25 27 28 30 31 33 34 35 36 36 37 37 37 37 37 38 38 37 36 36 37 37 36 36 36 36 36 36 36 35 34 32 31 29 28 27 25 22 21 20 20 20 19 20 22 21 21 24 27 25 24 25 27 29
19 20 20 21 21 22 22 22 23 23 23 23 24 24 24 24 24 23 23 23 23 23 23 23 24 24 24 24 23 23 24 26 26 27 29 30 32 33 34 35 36 36 37 37 37 37 38 39 39 38 37 37 37 36 36 36 36 36 36 34 33 33 31 29 27 25 24 22 20 20 19 21 22 22 23 26 26 24 24 26 27 29 30 28 27
19 20 20 20 21 22 23 23 24 24 24 25 25 25 25 25 25 25 24 24 24 24 24 25 25 26 26 26 26 26 26 27 27 27 27 28 30 32 34 35 35 36 36 37 37 37 37 38 39 38 37 36 36 36 36 36 36 37 36 35 34 33 31 29 27 25 24 21 20 21 20 19 23 27 27 28 28 27 27 27 29 31 30 24 20
20 20 20 21 22 23 24 25 25 26 26 27 27 27 27 27 27 26 26 25 25 25 25 26 26 26 27 27 28 28 28 28 28 27 27 28 29 31 33 35 36 36 36 36 37 37 36 37 38 38 37 36 36 37 36 36 36 36 37 37 37 36 33 31 28 27 25 22 21 23 22 20 24 29 28 27 28 30 32 31 31 31 28 21 15
20 20 21 22 23 25 26 27 28 28 29 29 30 30 29 30 30 29 29 28 27 27 27 27 27 27 27 28 29 29 30 29 29 28 28 28 28 30 33 35 36 36 36 36 37 37 36 36 37 37 37 36 36 36 36 37 37 36 37 37 37 38 37 35 32 30 28 25 22 24 26 25 26 31 32 32 33 34 33 31 32 32 29 23 18
21 22 23 24 26 27 28 30 30 31 32 32 32 33 33 33 33 33 32 31 31 31 30 30 29 29 29 29 30 31 31 31 30 29 29 28 28 29 32 34 35 37 37 36 36 36 36 36 36 36 36 36 35 35 36 37 37 36 36 35 36 37 37 37 36 34 32 30 27 28 31 30 29 33 37 37 36 34 30 28 29 29 26 23 22
22 24 25 26 28 29 29 30 31 32 33 33 34 34 35 36 36 36 36 35 35 35 35 34 34 32 32 32 33 34 33 32 31 30 29 29 29 29 31 33 35 37 37 36 36 36 36 36 35 35 35 34 34 34 35 35 35 35 34 33 34 35 36 36 36 34 33 33 32 32 33 32 33 36 39 39 38 37 35 32 30 28 25 22 22
23 24 26 27 28 29 30 31 31 32 33 33 34 35 35 37 37 37 37 37 37 37 36 36 36 35 34 34 35 37 36 33 31 30 29 29 29 29 31 33 35 36 37 37 36 37 37 36 35 35 34 34 34 33 33 34 33 33 32 31 31 32 34 35 35 34 34 34 35 34 33 34 35 37 39 40 38 38 38 36 33 29 25 21 19
25 25 26 28 29 30 31 32 32 33 33 34 35 35 35 36 36 37 37 38 37 37 36 36 36 37 37 35 35 39 39 35 32 31 29 27 28 29 31 33 34 36 37 37 37 37 36 35 35 35 35 34 34 33 33 32 32 31 30 29 29 30 32 33 33 34 35 35 35 34 32 33 35 36 38 39 38 36 34 30 27 27 24 20 19
26 27 27 28 29 30 31 31 32 33 34 35 35 35 35 36 36 36 37 39 39 39 39 39 39 38 39 38 36 39 42 38 34 32 30 27 27 29 30 32 34 35 37 37 36 36 35 34 33 34 34 34 34 34 32 30 30 29 28 27 27 27 28 29 29 31 33 33 33 32 31 32 33 35 36 38 39 38 32 28 27 27 23 17 14
27 28 28 28 29 30 30 31 32 33 34 34 35 36 36 36 36 36 37 38 40 40 40 41 42 41 40 41 39 38 42 42 36 33 32 28 26 27 29 31 34 35 36 37 36 34 34 34 33 33 34 34 34 33 31 28 28 29 27 26 25 25 26 26 26 27 28 28 29 29 29 31 34 35 36 38 39 37 33 32 33 30 23 17 14
28 28 29 29 29 30 31 31 32 33 34 35 35 36 36 37 37 37 37 38 39 41 40 41 43 43 42 42 41 40 42 44 40 35 32 28 25 26 28 30 33 34 34 34 34 33 32 33 33 33 34 34 33 32 31 28 29 30 28 26 25 25 26 26 26 27 27 27 27 27 27 29 32 33 33 35 36 36 34 34 33 31 25 20 19
28 28 28 29 30 30 31 32 33 34 35 36 36 36 37 37 38 39 39 39 40 41 42 40 42 44 44 42 42 41 41 42 42 37 33 29 25 25 27 29 32 33 33 32 31 31 30 30 31 33 33 33 33 32 31 29 29 30 29 27 27 26 26 26 27 27 27 27 26 26 27 28 30 30 30 32 33 34 33 29 27 29 26 22 24
27 27 28 29 30 31 31 32 33 34 35 36 37 38 38 38 39 39 39 40 40 40 42 41 41 45 46 43 42 43 41 41 41 38 34 30 26 24 26 30 31 32 33 32 30 30 29 28 30 32 32 32 32 31 30 29 29 30 31 31 29 27 25 27 28 28 28 28 28 28 29 29 30 30 31 32 33 32 28 23 22 26 25 23 25
26 27 27 28 29 30 31 31 32 34 35 36 37 39 40 39 39 39 39 39 39 39 41 41 40 43 47 47 45 45 43 42 41 39 35 31 27 25 26 29 30 29 31 33 31 30 30 29 30 32 32 31 31 30 29 28 27 29 32 31 30 27 26 28 30 29 30 31 31 31 32 31 31 30 31 31 30 27 23 20 20 21 20 19 22
26 26 26 27 28 29 30 32 32 33 35 35 36 39 41 40 40 40 38 37 38 39 40 40 38 40 44 46 46 46 45 43 41 39 36 32 28 26 26 28 29 28 30 33 32 30 30 30 31 32 32 31 29 28 28 26 26 29 31 31 30 28 27 29 30 30 30 31 32 32 32 31 31 29 29 28 26 24 22 20 20 19 17 15 16
25 26 26 27 29 30 32 33 34 34 35 35 36 38 40 40 40 40 37 35 35 37 39 39 35 35 38 41 45 47 45 43 41 40 37 34 30 27 26 27 28 29 31 34 34 31 31 31 31 31 31 30 28 27 26 26 27 29 29 29 28 28 29 31 31 31 30 30 30 31 30 30 31 30 29 28 26 25 23 22 20 19 19 17 15
27 27 29 30 31 32 34 35 35 35 35 34 35 37 38 38 39 39 38 35 33 33 35 36 34 33 34 36 40 45 45 42 41 41 39 35 32 28 26 27 28 28 30 33 33 32 32 32 31 30 29 28 26 25 25 25 27 28 27 27 27 30 32 33 32 31 29 28 29 30 29 28 30 31 30 29 29 27 25 24 22 21 19 18 17
28 29 30 32 33 33 34 36 37 36 36 35 34 35 35 34 36 38 37 34 33 32 33 34 33 32 33 35 38 42 43 41 41 40 38 35 32 29 26 27 28 28 30 32 33 32 32 31 30 28 27 26 24 25 25 26 27 28 28 28 30 32 34 33 32 30 29 28 28 29 27 27 28 30 30 30 29 28 27 27 25 22 20 19 19
30 31 31 33 34 33 32 34 36 36 36 35 33 34 34 33 33 35 36 34 32 31 31 32 31 31 32 34 37 38 39 40 40 39 36 33 32 29 27 26 26 27 28 29 30 31 31 30 28 26 25 24 24 25 26 25 26 28 29 30 31 32 33 34 33 31 30 30 29 28 28 28 29 30 30 30 29 28 28 27 26 24 21 20 20
29 31 31 31 32 30 30 31 33 34 35 34 32 33 34 32 32 34 37 36 32 32 33 32 32 33 32 33 35 35 36 39 39 36 32 30 29 27 26 26 26 26 26 26 26 27 28 27 25 23 23 22 22 24 25 25 26 27 29 30 29 29 30 30 30 29 29 29 29 29 30 30 30 30 29 29 29 29 27 25 24 24 22 20 19
30 31 30 30 30 29 29 30 31 32 34 34 34 33 33 33 32 36 42 41 36 34 36 37 38 37 34 33 34 32 32 39 41 35 30 29 29 27 26 26 26 25 26 25 24 23 23 22 22 22 21 21 21 22 23 24 25 26 27 28 28 28 29 29 27 26 26 29 31 32 32 31 29 28 28 27 28 28 26 23 24 24 22 19 18
31 30 29 29 29 29 30 32 32 31 32 33 34 36 37 35 33 34 40 44 42 38 37 40 44 43 39 39 40 37 37 44 47 43 39 38 36 33 32 31 29 27 26 24 22 22 21 21 23 23 22 20 20 20 21 22 23 24 26 27 28 28 30 29 27 26 28 31 33 33 32 31 29 27 27 28 27 27 25 23 23 24 22 18 17
28 28 27 26 26 26 27 29 30 30 30 29 30 33 37 39 38 36 35 37 40 41 39 40 42 42 41 42 44 44 44 44 44 44 44 42 38 35 33 31 30 29 27 23 22 23 22 23 24 22 21 20 20 20 21 21 21 23 25 26 28 29 29 28 28 29 30 31 32 32 31 33 33 30 28 30 30 28 26 24 23 22 20 17 16
26 29 28 27 26 25 25 26 27 27 27 28 29 31 32 35 40 43 38 32 32 35 39 41 40 39 39 40 41 43 45 43 39 39 41 39 36 33 30 29 29 29 26 24 26 26 24 24 22 19 19 20 20 21 22 21 21 24 25 25 26 28 29 29 31 32 32 31 31 31 31 32 33 31 30 31 31 28 26 25 24 22 19 16 14
26 30 31 30 27 26 24 25 25 26 28 31 32 32 31 29 31 38 43 41 36 33 35 37 37 36 37 38 38 38 41 41 40 38 37 35 33 31 29 29 29 27 26 26 28 27 25 24 22 21 21 22 22 22 23 22 22 24 25 24 24 26 28 31 33 33 33 32 33 33 32 32 32 31 30 30 27 26 26 26 23 21 19 16 14
26 28 28 27 27 27 28 28 29 30 32 33 33 32 32 31 31 32 37 39 38 34 31 31 31 32 34 37 37 36 36 38 40 39 37 34 32 29 29 30 29 26 27 29 29 27 24 23 22 22 23 23 22 23 22 21 23 25 25 25 25 26 29 31 32 32 32 32 32 33 33 33 32 31 31 29 25 24 26 25 23 21 18 16 14
26 26 26 25 27 30 33 34 34 33 33 34 35 34 34 34 33 32 31 31 32 34 35 35 35 34 34 36 37 37 36 38 40 41 39 37 33 29 29 29 26 24 26 29 29 27 25 23 22 22 22 22 22 23 23 23 25 27 28 27 27 28 29 30 30 32 32 32 32 33 33 32 31 31 33 31 28 27 27 25 22 20 17 15 15
27 28 28 28 29 31 34 35 35 34 35 35 36 36 35 34 32 31 31 31 30 32 34 37 40 39 36 35 35 36 36 38 39 39 38 37 33 29 27 26 23 22 24 26 27 27 26 24 23 22 22 22 22 23 25 26 27 29 31 31 31 31 31 30 30 32 32 32 33 32 31 30 30 31 32 31 29 28 27 25 22 18 16 15 16
28 29 31 32 32 33 35 37 36 34 33 32 32 32 33 32 32 31 30 30 30 31 33 35 37 37 35 32 30 30 34 36 36 34 34 34 31 29 28 26 24 23 23 24 25 25 24 23 22 21 21 21 22 23 25 27 27 28 31 33 33 33 32 32 32 33 33 32 32 30 29 30 31 32 31 30 27 26 25 23 20 18 17 17 17
28 28 29 30 32 32 33 34 33 30 28 27 28 29 30 30 31 30 30 30 30 30 30 31 31 31 31 30 29 29 32 33 30 28 29 29 28 28 28 27 26 25 24 23 24 24 22 20 20 21 21 22 23 24 25 27 28 29 30 31 31 32 32 32 32 33 33 31 29 28 29 30 30 30 29 28 26 24 23 21 20 20 19 19 18
29 29 29 28 28 29 29 29 28 28 27 27 27 27 28 29 30 31 30 30 29 29 29 30 30 30 30 31 31 31 29 26 25 24 25 26 26 26 27 26 26 26 24 23 22 22 20 20 20 21 22 23 24 25 27 28 29 29 30 31 31 31 31 31 32 31 30 29 28 28 29 29 29 27 25 25 25 24 23 22 21 21 21 21 19
30 31 30 27 26 27 27 27 27 27 27 28 27 27 28 29 30 31 31 30 30 30 29 29 29 29 30 33 34 32 27 24 24 24 23 23 24 25 25 25 25 25 23 22 21 21 20 21 22 22 23 24 25 26 28 29 30 30 31 33 33 32 32 32 32 30 28 27 29 30 29 28 27 25 23 23 23 23 22 22 21 21 20 19 18
30 31 30 28 26 26 27 27 27 27 27 28 29 29 29 30 30 30 31 31 31 30 28 28 31 35 36 37 38 36 31 27 26 25 24 24 24 24 24 24 24 23 22 21 21 21 21 22 23 23 24 25 26 27 29 30 31 31 32 32 33 34 33 32 30 28 28 29 30 29 27 26 25 24 24 23 22 21 21 20 20 20 18 17 17
29 30 30 29 28 26 26 27 27 28 28 29 29 29 29 30 30 30 31 32 32 30 28 30 35 39 39 37 37 35 31 28 27 27 25 25 25 24 24 23 23 22 22 22 21 22 23 23 24 24 25 26 27 28 29 30 31 31 32 33 33 33 32 30 28 28 29 30 29 27 26 24 23 24 24 23 21 21 20 19 19 19 19 18 18
28 28 29 30 29 28 27 28 29 29 29 29 30 30 30 31 32 31 31 31 31 30 30 32 35 38 38 37 34 31 29 28 27 26 25 25 25 23 22 21 21 21 21 21 21 22 24 24 24 24 25 26 27 28 29 30 30 31 31 31 30 29 29 29 29 30 30 29 28 26 25 24 24 24 23 22 22 21 21 20 20 20 19 19 18
26 27 28 29 29 29 29 29 29 29 30 30 31 31 31 31 31 30 29 29 29 29 30 32 34 36 36 35 31 28 27 26 25 25 25 25 23 21 19 18 19 21 21 21 21 22 24 24 24 24 25 25 26 27 28 28 28 28 28 28 28 29 29 30 31 31 30 29 28 26 25 25 25 24 23 22 22 22 22 21 21 20 20 19 19
25 27 28 29 29 30 30 30 29 29 30 30 30 30 30 30 30 29 29 28 29 30 32 34 34 33 32 31 29 27 26 25 24 24 24 22 20 18 17 17 19 21 21 21 21 22 23 24 24 25 25 25 25 26 26 27 27 27 27 27 28 29 29 30 30 30 29 28 27 27 27 26 25 24 23 23 22 22 22 21 21 20 20 20 19
25 26 27 28 29 30 30 29 29 28 28 28 29 29 29 28 28 29 30 30 31 33 35 35 33 31 30 29 28 26 24 22 21 20 19 17 17 16 16 18 20 22 22 22 22 22 22 22 23 24 25 26 26 26 26 26 26 26 25 25 25 26 27 28 27 27 26 25 25 26 26 26 25 24 23 23 22 21 20 20 20 20 19 19 18
25 26 26 27 29 30 30 28 27 27 27 27 28 29 29 29 29 29 30 31 32 33 33 32 31 30 29 27 25 22 20 17 16 15 14 14 14 15 17 19 21 22 22 23 23 22 21 22 23 24 25 25 25 25 25 24 24 23 23 22 23 24 25 25 24 23 22 22 22 23 24 25 25 24 23 23 22 21 20 20 19 18 17 17 16
25 25 26 27 28 29 29 29 28 27 27 27 27 28 29 29 29 29 30 30 31 30 30 29 28 27 25 22 20 17 15 13 12 12 11 12 13 14 17 19 20 21 21 22 22 21 20 20 21 22 23 24 24 24 24 24 24 23 22 21 21 21 23 23 22 21 21 21 20 21 22 22 23 24 23 22 22 21 20 20 19 18 17 16 15
25 25 25 26 27 28 29 29 29 28 27 27 26 26 27 27 28 28 28 29 28 27 25 25 24 22 20 17 15 12 11 10 9 9 8 9 10 13 15 17 18 19 20 20 20 20 19 20 22 23 24 24 24 24 24 24 23 23 22 21 21 21 21 22 21 21 21 21 21 21 21 21 21 22 21 21 20 20 19 19 18 18 17 16 16
24 24 24 25 26 27 28 29 29 29 29 28 27 26 25 26 27 27 27 26 25 24 24 24 22 20 17 15 12 10 9 7 7 6 6 7 9 12 14 16 17 19 20 21 22 22 21 22 23 23 23 23 24 24 23 22 22 22 22 22 22 22 21 21 21 20 20 20 20 20 20 20 20 20 20 20 20 19 19 18 17 17 16 16 16
23 23 24 24 25 26 27 28 28 29 29 29 28 27 26 26 27 27 26 25 25 25 24 23 21 18 16 13 10 8 6 4 2 3 5 7 9 12 14 16 17 19 20 21 21 21 21 21 21 21 21 22 22 22 22 21 21 21 21 21 21 21 20 20 20 19 19 19 19 19 19 19 19 20 20 20 19 18 18 17 16 16 15 15 15
Wind_Direction
49 45 41 39 35 34 31 27 20 11 5 355 346 342 334 326 321 313 306 302 298 292 289 287 285 284 281 279 277 275 274 272 270 267 265 265 265 264 263 259 256 255 255 255 256 257 255 254 254 255 255 252 249 249 248 248 248 245 243 243 241 239 238 236 242 258 259 255 253 252 250 248 247 245 244 241 237 234 231 228 225 221 218 218 215
46 42 40 39 37 36 34 29 24 19 15 8 1 356 347 340 332 321 315 313 307 300 297 295 292 289 285 282 280 278 275 273 271 268 266 266 265 264 263 259 257 256 255 254 255 256 255 254 254 256 255 253 252 251 250 249 247 245 242 241 240 240 237 235 238 248 257 255 251 248 247 245 243 243 240 237 234 230 225 223 222 220 217 215 212
45 42 40 39 37 35 31 28 25 20 17 13 9 4 358 353 344 333 329 323 315 309 305 301 297 293 289 286 283 280 278 276 273 270 268 267 267 265 264 261 259 257 255 255 255 255 255 255 255 256 255 253 252 251 251 249 246 245 244 242 241 242 239 236 236 241 251 256 250 244 243 240 239 240 237 233 230 225 220 219 218 216 215 212 210
45 42 39 37 34 31 27 24 21 18 16 12 9 5 1 357 352 344 339 333 326 320 313 307 302 296 292 290 288 285 283 280 277 274 272 271 269 268 267 264 261 259 257 256 256 256 256 257 258 259 256 254 254 252 251 250 247 246 246 244 243 244 243 239 237 239 245 253 251 243 240 235 233 233 228 222 220 219 215 214 213 211 209 207 207
43 39 35 32 29 26 24 21 18 16 14 11 8 6 2 359 355 350 345 339 335 330 323 316 308 302 298 295 293 291 289 286 283 280 277 275 273 271 269 267 264 262 260 259 258 256 257 258 260 261 257 255 254 253 252 251 250 248 247 246 244 245 244 241 239 239 241 247 250 243 234 228 225 224 219 212 207 207 208 209 208 205 202 200 201
44 39 35 32 29 26 24 21 18 14 11 9 6 4 1 358 356 353 348 344 341 337 331 325 317 310 305 301 298 295 294 291 287 284 282 279 277 274 272 270 267 265 263 262 260 258 258 260 262 262 259 256 255 255 254 253 252 250 248 247 247 245 244 242 240 239 238 243 246 239 225 219 216 213 212 209 203 195 192 197 202 201 198 194 193
46 42 39 37 33 31 28 24 21 18 14 10 6 3 0 357 355 353 350 346 344 341 336 331 324 317 311 307 304 301 297 294 289 286 284 281 278 276 274 272 269 267 266 264 262 260 260 261 263 264 262 259 258 257 257 256 255 253 251 249 249 246 243 242 240 237 236 239 239 231 221 215 211 207 202 202 202 193 182 179 184 191 196 196 196
47 43 40 38 35 32 29 26 24 21 19 15 11 8 4 0 357 353 350 347 344 342 338 332 326 322 317 312 309 305 300 296 292 290 287 285 281 278 276 273 271 269 268 266 265 263 262 262 262 264 265 263 261 261 260 259 257 255 254 252 249 246 243 241 237 234 232 231 229 222 213 205 200 194 186 184 185 186 184 180 176 179 187 193 200
45 41 38 34 31 28 24 22 21 19 17 15 13 11 7 4 1 356 352 348 345 341 337 332 328 324 321 317 313 308 302 299 297 294 291 289 285 282 279 275 272 270 269 268 266 264 263 262 262 264 266 267 266 266 265 263 259 256 255 253 249 245 242 239 235 230 226 225 221 210 200 196 189 179 175 180 180 179 180 180 179 181 183 185 193
40 37 33 29 25 22 19 17 15 13 12 11 9 8 6 4 2 360 356 351 347 343 338 334 331 327 324 320 316 312 307 305 303 300 296 292 288 285 281 277 274 271 269 268 267 265 264 264 264 264 267 269 269 269 267 264 262 259 258 256 251 246 241 236 232 227 221 219 212 200 195 195 190 183 181 183 182 177 175 177 180 180 178 176 183
34 30 26 23 19 16 14 12 10 9 7 5 4 2 2 1 360 358 357 353 350 346 342 338 335 330 326 322 318 315 312 311 309 304 300 295 290 285 281 278 275 272 270 268 267 267 266 266 266 265 266 268 269 269 268 266 264 263 262 259 254 249 243 237 232 225 219 218 212 202 198 196 191 188 184 178 178 180 180 182 180 174 172 172 178
27 23 20 18 14 11 9 7 6 5 3 1 360 358 357 356 356 354 352 351 349 346 343 340 337 334 328 323 320 317 315 314 312 307 303 299 293 287 282 279 276 273 270 269 268 268 267 266 266 265 264 266 268 269 268 267 266 265 264 261 256 251 247 242 237 229 221 216 210 204 202 196 188 185 183 178 180 183 184 183 180 177 177 181 184
21 18 16 13 10 8 6 3 2 1 360 358 356 355 354 352 352 351 349 348 345 343 342 340 337 335 331 326 322 319 318 317 314 310 307 302 297 291 284 280 277 274 271 270 269 268 267 266 265 264 264 265 266 266 266 266 266 266 265 262 256 252 249 245 242 237 229 219 212 210 208 198 188 187 188 185 181 180 179 180 181 182 184 188 191
17 14 12 11 8 6 4 2 1 358 357 355 352 351 350 349 349 348 345 345 343 341 340 338 336 334 331 328 324 320 319 319 317 313 309 306 301 294 288 283 279 276 274 271 270 268 267 266 265 265 265 265 265 265 265 265 266 266 264 260 255 251 247 244 240 236 232 226 221 219 214 205 199 197 193 189 184 181 181 183 186 187 187 190 193
14 10 9 7 5 4 1 360 359 357 355 354 351 350 349 347 346 345 342 341 340 338 337 335 333 331 329 326 323 320 320 319 317 314 310 308 304 297 290 285 280 278 276 273 271 269 267 266 265 265 265 265 265 265 265 266 265 264 261 257 254 250 245 242 237 232 230 228 225 224 219 213 209 203 194 190 188 187 189 192 192 188 182 177 175
9 6 4 3 1 0 358 356 356 354 352 351 349 348 347 345 344 342 339 338 336 334 333 331 329 327 326 324 320 319 319 319 317 315 311 308 305 298 291 286 281 278 276 274 271 270 268 265 264 265 265 266 266 266 266 265 262 258 255 253 250 246 243 242 237 231 229 227 225 225 224 219 212 203 195 190 188 190 192 190 185 176 166 156 154
3 360 358 356 355 355 354 352 351 350 348 347 345 343 342 341 341 340 337 335 334 332 330 328 327 325 324 322 319 317 317 318 316 314 311 308 304 297 290 285 281 278 276 275 273 270 268 266 264 264 265 265 266 267 266 262 256 252 249 247 243 240 239 238 232 228 228 227 225 223 222 217 209 202 198 192 190 193 188 177 172 168 161 154 152
357 353 351 349 348 348 347 346 346 344 343 342 340 338 337 336 336 336 334 331 330 329 327 326 324 323 321 320 318 314 315 316 315 312 310 307 301 296 290 284 280 277 276 276 274 271 269 267 265 263 264 265 266 266 264 256 249 246 242 239 234 231 230 227 221 219 221 221 219 216 215 211 205 200 198 195 195 198 192 181 177 173 167 166 161
349 346 344 342 341 342 341 341 340 339 337 336 334 333 333 332 331 331 329 327 325 324 323 322 320 320 319 317 316 313 312 314 314 311 310 307 301 294 288 281 277 276 276 275 275 273 269 267 266 263 263 265 264 262 260 253 244 241 238 231 226 225 223 217 210 207 205 205 207 207 206 204 200 197 196 197 200 201 198 192 187 181 175 169 161
341 338 337 336 336 337 337 337 336 334 333 331 330 329 329 328 327 326 325 324 322 320 319 317 316 316 315 313 312 310 309 310 312 310 308 306 301 292 284 276 272 274 276 275 274 274 270 266 265 264 264 265 263 260 258 252 242 238 234 226 223 224 220 210 203 199 195 194 196 197 194 193 192 191 190 192 193 193 194 196 195 192 185 170 164
333 332 332 332 332 332 333 333 332 330 329 328 326 325 325 324 323 322 321 320 318 316 316 314 312 312 312 310 309 309 307 307 308 308 306 305 303 294 282 275 271 271 273 273 271 271 270 266 265 266 265 264 262 259 257 251 242 235 231 227 226 224 214 203 198 194 190 188 186 184 181 180 180 180 179 180 182 185 189 194 197 198 194 182 174
329 328 329 329 330 330 330 329 328 327 326 326 324 322 321 321 320 319 318 316 315 313 312 311 309 308 308 307 306 306 306 305 305 305 303 302 301 295 284 278 275 271 269 270 269 267 268 267 266 267 267 266 263 259 255 250 238 230 230 229 226 221 212 201 194 188 184 181 177 173 171 169 167 167 168 171 176 180 182 183 186 192 197 198 192
327 327 328 328 328 329 328 327 326 325 324 323 322 319 318 318 317 316 315 313 312 310 308 307 306 304 303 303 303 303 303 302 301 301 300 299 297 294 287 282 279 270 263 265 266 266 267 267 266 267 268 267 263 257 252 246 233 226 227 226 221 215 207 196 187 181 177 173 169 166 164 163 162 161 163 166 170 174 174 173 177 181 183 187 191
329 329 328 328 328 328 327 325 324 323 322 322 320 317 316 316 315 313 312 309 307 304 303 302 301 298 297 297 298 299 299 299 298 297 297 296 294 292 289 284 280 272 265 264 265 265 266 266 266 267 266 265 262 256 249 242 231 223 221 220 215 206 197 189 183 178 173 170 166 163 161 163 163 162 163 166 167 169 169 167 168 172 172 171 172
331 331 330 329 328 328 326 323 322 321 321 320 317 314 313 313 310 308 307 304 300 297 296 296 294 292 291 291 293 295 296 296 295 294 294 292 290 291 290 285 280 274 267 264 265 265 266 266 265 264 262 261 259 253 244 238 231 224 217 214 208 199 191 187 182 177 172 169 166 165 164 165 165 165 166 167 165 164 162 158 157 160 162 161 158
332 331 330 328 327 326 324 322 321 320 318 316 313 310 308 306 304 302 300 297 294 291 290 290 289 288 287 287 288 291 293 293 292 291 291 289 288 290 289 286 282 276 269 267 266 265 265 265 262 258 257 256 251 242 235 232 230 226 218 211 204 196 189 185 181 177 173 170 168 165 163 162 163 165 166 165 163 161 160 156 152 151 155 157 152
332 329 328 326 324 324 322 318 317 315 313 312 309 305 303 300 297 296 294 292 291 288 286 286 285 284 284 285 287 289 290 290 289 288 288 287 287 289 288 284 281 278 272 270 268 264 260 258 254 251 251 250 243 236 232 229 227 223 216 209 205 198 191 186 183 178 174 171 167 162 159 160 161 163 164 164 162 162 163 162 155 150 156 162 154
328 324 324 322 320 319 316 313 311 309 307 305 302 299 298 296 293 290 288 287 286 286 286 284 281 280 281 284 286 287 287 286 285 286 288 289 289 288 285 281 278 274 271 271 271 265 256 249 243 240 239 235 231 229 228 227 226 219 209 206 204 198 191 186 183 179 174 169 162 157 157 160 161 160 161 162 162 163 166 167 162 158 162 165 156
324 322 322 320 317 316 313 309 306 304 302 301 299 296 293 291 289 288 288 287 283 280 281 282 281 280 280 280 280 281 281 282 284 286 288 289 287 284 281 279 276 272 272 272 267 256 244 234 228 224 221 219 218 220 222 224 222 213 203 200 198 192 187 184 180 177 173 165 159 156 157 159 159 158 159 160 162 164 168 168 165 164 166 166 160
323 322 322 319 316 314 312 308 306 303 301 300 300 298 296 292 285 281 284 288 287 281 275 275 277 279 279 277 276 274 273 278 284 287 286 283 282 280 277 276 275 274 274 269 255 239 227 220 218 215 211 210 211 214 217 217 212 203 196 193 189 184 182 182 179 175 171 166 161 159 159 160 159 158 159 161 161 162 167 170 170 170 167 163 159
322 318 318 316 312 310 307 306 306 304 301 299 299 300 299 298 294 285 279 280 284 284 279 274 274 275 276 276 277 277 276 277 281 285 285 282 280 277 274 272 273 273 272 260 239 227 221 216 214 212 208 208 210 211 212 212 204 194 188 186 184 182 179 178 176 174 170 164 161 161 164 165 163 162 164 165 163 162 165 170 172 173 170 165 161
317 314 314 312 308 305 301 301 301 301 300 302 302 300 298 298 299 298 293 284 279 281 281 280 278 277 275 275 276 278 279 279 279 282 283 282 280 276 271 267 267 268 267 252 232 224 221 217 213 209 205 209 212 210 210 209 199 189 183 180 180 180 177 175 175 173 169 164 163 165 167 167 165 165 168 167 164 161 163 167 168 169 168 166 165
316 314 313 311 307 303 301 301 300 299 299 301 302 299 296 293 294 299 301 298 292 284 279 277 279 281 281 279 276 275 279 281 282 282 280 279 277 273 268 265 262 260 257 246 231 223 221 219 217 212 208 210 212 209 208 205 194 184 180 176 174 175 176 176 175 172 170 169 168 168 168 167 165 166 167 165 161 161 163 166 167 168 167 167 169
316 311 309 308 305 302 301 301 300 299 298 298 298 296 294 293 292 293 296 298 299 297 289 283 283 285 287 285 282 279 279 282 282 281 278 276 275 270 265 264 262 256 250 243 232 223 220 220 219 215 212 212 210 206 203 196 184 176 174 172 171 171 173 172 170 168 167 168 169 169 167 166 166 166 166 163 161 163 167 167 167 169 171 174 178
313 308 306 305 302 300 300 300 300 299 298 296 296 294 292 292 290 288 287 288 292 295 295 293 292 292 290 287 285 284 283 282 282 281 277 275 274 269 263 260 257 251 245 241 232 223 219 220 219 215 212 210 206 201 194 185 177 173 171 170 168 168 168 166 166 167 167 168 169 168 166 166 169 170 169 168 167 168 169 170 173 176 178 183 187
314 310 308 307 304 301 300 300 299 299 296 294 293 292 291 289 287 285 283 283 284 286 289 292 295 296 293 287 285 285 285 283 281 280 277 274 272 265 257 252 248 245 242 238 230 222 220 220 219 215 211 206 201 195 188 182 177 174 174 173 170 167 165 164 164 165 167 169 169 167 165 167 171 172 170 170 170 171 172 174 178 183 187 190 192
317 314 312 312 309 305 303 301 300 298 295 293 291 291 290 289 287 285 282 281 283 285 286 288 293 296 294 290 288 287 287 284 280 277 274 272 268 260 252 247 246 246 243 237 227 220 217 217 216 212 207 201 195 189 184 179 176 174 173 173 172 169 168 168 168 169 170 169 166 164 164 168 171 172 170 168 167 171 176 178 181 187 192 194 194
320 316 312 311 309 306 304 302 301 298 295 294 293 293 292 292 291 289 286 283 283 285 285 287 290 291 291 293 293 292 289 284 279 274 271 267 261 254 249 246 246 247 244 236 225 217 212 210 209 206 202 196 190 184 178 174 173 171 169 168 168 168 168 167 168 171 170 164 159 161 165 167 169 171 171 170 171 175 180 182 186 189 190 190 193
322 318 314 311 306 303 300 299 300 300 298 297 297 296 295 295 295 293 291 288 287 287 288 289 289 287 289 293 295 293 288 280 272 269 267 263 256 250 246 245 246 246 241 232 220 210 204 201 201 200 197 192 186 180 175 171 169 168 165 164 163 163 164 165 167 167 163 158 158 163 165 166 167 170 174 176 178 180 182 185 190 191 188 188 192
323 320 318 314 308 304 301 298 298 298 298 298 299 298 297 296 295 294 293 292 290 289 288 288 288 290 294 296 294 290 285 277 272 270 267 263 257 251 246 245 246 243 234 221 209 201 197 196 196 195 193 190 184 179 175 172 169 167 166 166 165 164 166 168 167 164 160 160 162 165 165 166 168 173 178 182 184 186 187 189 190 190 190 191 190
325 321 319 316 311 307 303 300 297 296 297 297 297 296 295 294 294 293 293 292 290 288 288 290 292 294 295 293 291 287 282 277 274 272 268 263 260 255 249 247 245 236 222 207 198 194 194 194 193 192 191 188 184 180 177 174 171 168 168 167 167 167 167 167 165 163 162 163 164 165 167 171 174 177 180 183 186 188 189 188 186 185 185 187 186
328 323 320 318 314 309 304 301 300 299 298 297 296 294 293 293 294 293 292 291 291 292 292 293 294 294 293 291 288 285 280 275 273 271 268 265 261 257 252 248 240 225 209 200 196 196 196 194 193 192 191 188 185 182 178 176 174 172 170 170 169 168 166 165 166 166 166 165 166 168 170 174 179 181 182 183 184 185 184 182 180 180 180 180 182
330 327 323 320 316 311 306 303 303 302 300 298 297 296 295 294 293 292 291 290 291 292 292 292 293 294 294 292 289 284 280 275 272 269 267 265 261 256 250 241 228 213 203 200 201 202 200 197 194 194 194 192 190 188 185 182 180 177 175 174 173 171 170 169 168 168 168 168 169 172 175 178 180 182 182 182 182 180 177 176 176 177 179 180 181
335 333 328 324 320 315 311 307 304 301 300 300 299 297 297 296 294 292 290 289 290 291 292 291 292 292 292 292 290 285 279 276 272 270 267 263 257 249 239 225 212 202 198 199 201 202 200 197 194 193 193 192 192 191 190 188 187 186 183 180 177 175 175 174 172 171 173 173 173 176 179 180 179 180 180 180 179 176 174 175 176 177 178 180 180
341 338 334 330 326 321 318 314 309 304 301 300 298 297 296 295 292 291 290 289 290 293 293 292 292 291 291 290 289 285 280 277 274 270 265 258 249 238 224 209 198 194 193 195 196 196 196 196 194 192 191 190 189 189 189 188 188 189 189 188 185 181 179 178 177 177 179 180 179 178 178 177 177 178 179 178 178 177 176 177 178 178 179 181 182
343 342 340 336 332 327 324 320 315 310 308 305 303 302 301 298 295 295 295 294 293 294 294 294 293 293 292 291 289 285 282 279 275 269 261 251 239 225 210 197 190 188 187 188 189 190 192 194 194 192 190 188 186 185 184 184 184 185 187 188 187 182 178 178 180 181 183 183 181 177 175 174 176 178 178 176 177 178 178 178 180 181 182 183 184
344 344 344 342 337 333 329 325 321 318 316 313 312 311 310 307 304 302 301 300 298 297 296 297 297 296 295 293 290 286 283 279 273 265 255 243 228 212 198 190 187 184 182 182 183 185 187 190 190 188 185 183 181 180 179 178 178 178 178 179 179 178 177 179 181 181 179 179 177 174 173 174 174 176 176 176 177 178 178 179 181 182 182 183 183
347 345 345 345 343 338 333 330 327 324 320 318 316 315 315 314 312 310 308 308 306 305 304 305 305 303 301 298 293 289 284 278 269 259 247 233 217 202 191 185 181 179 177 175 175 177 181 184 184 182 178 175 174 173 171 169 169 169 170 171 174 177 176 176 175 173 170 170 172 174 175 174 174 174 175 177 178 178 178 179 180 180 180 181 182
349 346 346 346 345 341 336 333 331 329 327 325 321 319 319 319 318 318 318 318 317 316 318 320 319 317 313 308 302 296 289 278 266 252 234 217 201 189 181 175 171 169 167 164 164 167 171 173 173 171 169 167 166 165 164 164 165 166 167 166 167 168 169 169 168 167 167 168 170 172 174 174 174 175 176 177 178 179 179 180 179 179 180 181 183
350 348 347 346 345 343 339 337 335 335 335 334 331 326 324 324 324 325 327 327 328 331 336 337 336 332 328 324 318 309 299 285 267 244 216 195 181 172 166 162 160 158 157 156 157 160 163 166 168 168 167 166 164 163 162 163 164 164 162 160 160 161 164 165 165 166 167 168 168 170 172 172 173 173 175 176 177 178 179 179 179 180 183 185 187
351 350 348 346 346 345 343 341 340 340 340 341 340 338 335 332 330 331 332 335 338 344 347 347 346 344 341 339 335 328 319 303 263 207 178 167 164 161 158 156 155 153 153 154 155 157 161 165 167 166 164 163 161 159 159 159 159 158 158 158 159 160 161 162 163 164 166 168 169 170 171 173 173 174 175 176 177 178 179 180 181 183 186 188 190